Tracking 32214 objects as of 19-Nov-2025
HD Live streaming from Space Station
objects crossing your sky now

STARLINK-35572

Track STARLINK-35572 now!
10-day predictions
STARLINK-35572 is classified as:


NORAD ID: 66117
Int'l Code: 2025-237D
Perigee: 453.7 km
Apogee: 455.2 km
Inclination: 53.2 °
Period: 93.5 minutes
Semi major axis: 6825 km
RCS: Unknown
Launch date: October 22, 2025
Source: United States (US)
Launch site: AIR FORCE WESTERN TEST RANGE (AFWTR)
Your satellite tracking list
Your tracking list is empty




NASA's NSSDC Master Catalog

Two Line Element Set (TLE):
1 66117U 25237D   25323.33336806  .00006833  00000-0  18073-3 0  9999
2 66117  53.1600 197.8682 0001095  88.3820 315.3258 15.39604953  5718
Source of the keplerian elements: AFSPC